When you browse on this site, cookies collect data to enhance your experience and personalize the content and advertising you see.
Visit our Privacy Policy to learn more. By continuing to use the site, you agree to this use of cookies and data.

Hourly Weather Otola

Today, 7 July, Tuesday

Time Temperature Precipitation Wind Pressure Humidity
00:00 +14°C° 0.2 mm 4 mps 734 mmHg 80%
01:00 +13°C° 0.2 mm 5 mps 734 mmHg 83%
02:00 +13°C° 0.1 mm 4 mps 734 mmHg 84%
03:00 +12°C° 0.1 mm 4 mps 734 mmHg 85%
04:00 +12°C° 0.1 mm 4 mps 734 mmHg 87%
05:00 +12°C° 0 mm 5 mps 735 mmHg 85%
06:00 +13°C° 0 mm 5 mps 735 mmHg 83%
07:00 +13°C° 0 mm 6 mps 736 mmHg 81%
08:00 +14°C° 0.1 mm 6 mps 736 mmHg 75%
09:00 +15°C° 0.1 mm 6 mps 736 mmHg 70%
10:00 +16°C° 0.1 mm 6 mps 736 mmHg 64%
11:00 +17°C° 0.1 mm 6 mps 736 mmHg 62%
12:00 +17°C° 0.1 mm 6 mps 736 mmHg 59%
13:00 +19°C° 0.1 mm 6 mps 736 mmHg 56%
14:00 +17°C° 0 mm 6 mps 736 mmHg 57%
15:00 +17°C° 0 mm 6 mps 736 mmHg 58%
16:00 +17°C° 0 mm 5 mps 736 mmHg 59%
17:00 +17°C° 0 mm 4 mps 736 mmHg 63%
18:00 +16°C° 0 mm 3 mps 736 mmHg 68%
19:00 +15°C° 0 mm 2 mps 736 mmHg 73%
20:00 +14°C° 0 mm 2 mps 736 mmHg 74%
21:00 +13°C° 0 mm 1 mps 736 mmHg 76%
22:00 +12°C° 0 mm 1 mps 736 mmHg 77%
23:00 +11°C° 0 mm 1 mps 736 mmHg 77%

Tomorrow, 8 July, Wednesday

Time Temperature Precipitation Wind Pressure Humidity
00:00 +10°C° 0 mm 2 mps 736 mmHg 77%
01:00 +10°C° 0 mm 2 mps 736 mmHg 77%
02:00 +10°C° 0 mm 2 mps 736 mmHg 79%
03:00 +10°C° 0 mm 2 mps 736 mmHg 81%
04:00 +10°C° 0 mm 3 mps 736 mmHg 84%
05:00 +12°C° 0 mm 3 mps 736 mmHg 79%
06:00 +13°C° 0 mm 4 mps 736 mmHg 74%
07:00 +15°C° 0 mm 5 mps 736 mmHg 69%
08:00 +17°C° 0 mm 4 mps 736 mmHg 68%
09:00 +17°C° 0 mm 4 mps 736 mmHg 68%
10:00 +18°C° 0 mm 4 mps 736 mmHg 67%
11:00 +17°C° 0 mm 4 mps 736 mmHg 68%
12:00 +17°C° 0 mm 3 mps 736 mmHg 69%
13:00 +16°C° 0 mm 3 mps 736 mmHg 71%
14:00 +14°C° 0.1 mm 3 mps 736 mmHg 76%
15:00 +14°C° 0.1 mm 2 mps 735 mmHg 80%
16:00 +13°C° 0.1 mm 2 mps 735 mmHg 85%
17:00 +13°C° 0.3 mm 1 mps 735 mmHg 88%
18:00 +13°C° 0.3 mm 1 mps 735 mmHg 90%
19:00 +11°C° 0.3 mm 0 mps 735 mmHg 93%
20:00 +12°C° 1.5 mm 1 mps 736 mmHg 94%
21:00 +12°C° 1.5 mm 1 mps 736 mmHg 95%
22:00 +12°C° 1.5 mm 1 mps 736 mmHg 96%
23:00 +12°C° 0.1 mm 1 mps 736 mmHg 96%

Day after tomorrow, 9 July, Thursday

Time Temperature Precipitation Wind Pressure Humidity
00:00 +12°C° 0.1 mm 2 mps 737 mmHg 97%
01:00 +12°C° 0.1 mm 2 mps 737 mmHg 97%
02:00 +12°C° 0 mm 2 mps 737 mmHg 96%
03:00 +12°C° 0 mm 2 mps 737 mmHg 96%
04:00 +12°C° 0 mm 2 mps 737 mmHg 96%
05:00 +12°C° 0 mm 2 mps 738 mmHg 94%
06:00 +13°C° 0 mm 2 mps 738 mmHg 91%
07:00 +14°C° 0 mm 2 mps 738 mmHg 89%
08:00 +15°C° 0 mm 2 mps 739 mmHg 83%
09:00 +16°C° 0 mm 2 mps 739 mmHg 78%
10:00 +17°C° 0 mm 2 mps 739 mmHg 73%
11:00 +18°C° 0 mm 2 mps 739 mmHg 68%
12:00 +21°C° 0 mm 1 mps 739 mmHg 63%
13:00 +22°C° 0 mm 1 mps 738 mmHg 57%
14:00 +22°C° 0 mm 1 mps 738 mmHg 56%
15:00 +23°C° 0 mm 1 mps 738 mmHg 55%
16:00 +23°C° 0 mm 1 mps 738 mmHg 54%
17:00 +22°C° 0 mm 1 mps 738 mmHg 61%
18:00 +20°C° 0 mm 2 mps 738 mmHg 68%
19:00 +19°C° 0 mm 2 mps 737 mmHg 76%
20:00 +18°C° 0 mm 2 mps 737 mmHg 80%
21:00 +17°C° 0 mm 3 mps 737 mmHg 84%
22:00 +16°C° 0 mm 3 mps 737 mmHg 89%
23:00 +15°C° 0 mm 2 mps 737 mmHg 89%

10 July, Friday

Time Temperature Precipitation Wind Pressure Humidity
00:00 +15°C° 0 mm 2 mps 737 mmHg 90%
01:00 +15°C° 0 mm 2 mps 737 mmHg 90%
02:00 +15°C° 0 mm 2 mps 736 mmHg 90%
03:00 +15°C° 0 mm 2 mps 736 mmHg 89%
04:00 +15°C° 0 mm 2 mps 736 mmHg 89%
05:00 +17°C° 0 mm 3 mps 736 mmHg 85%
06:00 +19°C° 0 mm 3 mps 735 mmHg 80%
07:00 +20°C° 0 mm 4 mps 735 mmHg 75%
08:00 +22°C° 0 mm 4 mps 735 mmHg 70%
09:00 +25°C° 0 mm 5 mps 735 mmHg 65%
10:00 +27°C° 0 mm 5 mps 735 mmHg 59%
11:00 +28°C° 0 mm 5 mps 734 mmHg 56%
12:00 +29°C° 0 mm 5 mps 734 mmHg 53%
13:00 +30°C° 0 mm 5 mps 733 mmHg 49%
14:00 +30°C° 0 mm 5 mps 733 mmHg 51%
15:00 +30°C° 0 mm 5 mps 733 mmHg 52%
16:00 +30°C° 0 mm 5 mps 732 mmHg 54%
17:00 +28°C° 0 mm 4 mps 732 mmHg 59%
18:00 +26°C° 0 mm 4 mps 732 mmHg 64%
19:00 +25°C° 0 mm 4 mps 733 mmHg 69%
20:00 +22°C° 0.8 mm 3 mps 733 mmHg 78%
21:00 +19°C° 0.8 mm 3 mps 734 mmHg 86%
22:00 +17°C° 0.8 mm 2 mps 734 mmHg 94%
23:00 +16°C° 0.8 mm 3 mps 735 mmHg 93%

11 July, Saturday

Time Temperature Precipitation Wind Pressure Humidity
00:00 +14°C° 0.8 mm 4 mps 736 mmHg 93%
01:00 +13°C° 0.8 mm 5 mps 736 mmHg 92%
02:00 +13°C° 0.1 mm 4 mps 736 mmHg 92%
03:00 +13°C° 0.1 mm 3 mps 737 mmHg 91%
04:00 +13°C° 0.1 mm 2 mps 737 mmHg 91%
05:00 +14°C° 0 mm 2 mps 738 mmHg 88%
06:00 +14°C° 0 mm 2 mps 738 mmHg 84%
07:00 +15°C° 0 mm 2 mps 738 mmHg 81%
08:00 +14°C° 0.1 mm 3 mps 739 mmHg 78%
09:00 +14°C° 0.1 mm 3 mps 739 mmHg 76%
10:00 +16°C° 0.1 mm 3 mps 739 mmHg 73%
11:00 +16°C° 0.1 mm 3 mps 739 mmHg 71%
12:00 +16°C° 0.1 mm 2 mps 739 mmHg 69%
13:00 +16°C° 0.1 mm 2 mps 739 mmHg 66%
14:00 +17°C° 0.2 mm 2 mps 739 mmHg 64%
15:00 +18°C° 0.2 mm 1 mps 739 mmHg 62%
16:00 +19°C° 0.2 mm 1 mps 739 mmHg 60%
17:00 +18°C° 0 mm 1 mps 739 mmHg 65%
18:00 +16°C° 0 mm 1 mps 739 mmHg 70%
19:00 +15°C° 0 mm 1 mps 738 mmHg 75%
20:00 +15°C° 0 mm 1 mps 739 mmHg 76%
21:00 +14°C° 0 mm 1 mps 739 mmHg 77%
22:00 +13°C° 0 mm 2 mps 739 mmHg 78%
23:00 +13°C° 0 mm 2 mps 739 mmHg 79%

12 July, Sunday

Time Temperature Precipitation Wind Pressure Humidity
00:00 +12°C° 0 mm 2 mps 739 mmHg 81%
01:00 +12°C° 0 mm 2 mps 739 mmHg 82%
02:00 +10°C° 0 mm 2 mps 739 mmHg 84%
03:00 +10°C° 0 mm 3 mps 739 mmHg 86%
04:00 +10°C° 0 mm 3 mps 739 mmHg 87%
05:00 +11°C° 0 mm 3 mps 740 mmHg 83%
06:00 +13°C° 0 mm 3 mps 740 mmHg 78%
07:00 +14°C° 0 mm 3 mps 740 mmHg 73%
08:00 +15°C° 0.4 mm 4 mps 740 mmHg 71%
09:00 +16°C° 0.4 mm 5 mps 741 mmHg 70%
10:00 +16°C° 0.4 mm 5 mps 741 mmHg 69%
11:00 +17°C° 0.2 mm 6 mps 741 mmHg 66%
12:00 +17°C° 0.2 mm 6 mps 741 mmHg 63%
13:00 +19°C° 0.2 mm 6 mps 741 mmHg 60%
14:00 +19°C° 0 mm 6 mps 741 mmHg 59%
15:00 +17°C° 0 mm 6 mps 741 mmHg 58%
16:00 +17°C° 0 mm 6 mps 741 mmHg 58%
17:00 +16°C° 0 mm 5 mps 741 mmHg 63%
18:00 +15°C° 0 mm 4 mps 741 mmHg 69%
19:00 +13°C° 0 mm 3 mps 741 mmHg 74%
20:00 +12°C° 0 mm 3 mps 741 mmHg 76%
21:00 +12°C° 0 mm 2 mps 741 mmHg 79%
22:00 +10°C° 0 mm 2 mps 742 mmHg 81%
23:00 +10°C° 0 mm 2 mps 742 mmHg 82%
Show more